Location: ??????????
(42.1626°N, 44.1160°E)
Time: 14:54:42
(UTC+00:00)

Cosmos 1844 - Pass Details

Date: 03 March 2021
Orbit: 822 x 868 km, 70.9° (Epoch: 21 April)

Event Time Altitude Azimuth Distance (km) Brightness Sun altitude
Rises 16:53:37 0° 333° (NNW) 3,455 7.4 -22.5°
Reaches altitude 10° 16:56:06 10° 332° (NNW) 2,509 6.7 -22.9°
Maximum altitude 17:01:51 74° 249° (WSW) 892 3.8 -24.0°
Enters shadow 17:04:37 32° 170° (S) 1,435 4.7 -24.5°
